User: anonymous   Login
Location: Unspecified
(0.0000°N, 0.0000°E)
Time: 03:34:03
(UTC+00:00)
Language:

Oscar 17 - Orbit

View from above orbital plane
View from above orbital plane
View from above satellite
View from above satellite

Ground track
Ground track

The orbit data is extracted from the following two-line orbital elements,

1 20440U 90005E   21342.53098861  .00000021  00000-0  24199-4 0  9998
2 20440  98.7932 306.1403 0011139  15.6910  97.9977 14.33269643665651
Epoch (UTC): 08 December 2021 12:44:37
Eccentricity: 0.0011139
inclination: 98.7932°
perigee height: 773 km
apogee height: 789 km
right ascension of ascending node: 306.1403°
argument of perigee: 15.6910°
revolutions per day: 14.33269643
mean anomaly at epoch: 97.9977°
orbit number at epoch: 66565

The dashed part of the orbit path shows where the satellite is in the earth's shadow,  

DLR